Content
SEND FEEDBACK

Daily
Averages
Monthly
Summary
United States of America

FREDERICKTOWN, MISSOURI


Home > North America > United States > Missouri
Elevation: 700 feet     Latitude: 37 34N     Longitude: 090 18W

WEATHER
 
SELECT A DAY
Number of Records: 448,448;   Date Range: 2/10/95 - 10/1/14
 
SHARE

PRINT THIS DATA

[ ← Previous Day ]
WEATHER ALMANAC - FEBRUARY 13, 2013
[ Next Day → ]
[ °C ]   °F
Weather ElementAverageHighLow
Temperature40.8 °F51.8 °F (2:35 pm)33.8 °F (3:15 am)
Dewpoint28.8 °F33.8 °F (12:35 am)23 °F (4:55 pm)
Humidity66 %93 % (2:15 am)35 % (2:55 pm)
Barometer29.89 in29.93 in (12:35 am)29.85 in (2:55 pm)
Wind Speed7 mph13.8 mph (2:55 pm)
Wind Gust20.7 mph (2:35 pm)
Weather ElementAverage
Visibility9.5 mi
Wind DirectionWSW (260.6 °)

Weather ElementTotal
Precipitation0.05 in
Heating Degree Days22.2 (Base 65)
Averaged from 71 records on February 13, 2013
WEATHER CONDITIONS BREAKOUT
WIND DIRECTION BREAKOUT
WEATHER BY HOUR - FEBRUARY 13, 2013
[ °C ]   °F
Local TimeTemperatureDewpointHumidityBarometerVisibilityWind DirectionWind SpeedGust SpeedPrecipitationEventsConditions
12:35 AM39.2 °F33.8 °F81 %29.93 in10.0 miNorth (360°)6.9 mphOvercast
12:55 AM37.4 °F33.8 °F87 %29.92 in10.0 miNNW (330°)9.2 mphOvercast
1:15 AM37.4 °F33.8 °F87 %29.91 in10.0 miNNW (330°)6.9 mphOvercast
1:35 AM37.4 °F33.8 °F87 %29.91 in10.0 miNNW (330°)9.2 mphOvercast
1:55 AM37.4 °F33.8 °F87 %29.90 in10.0 miNNW (340°)8.1 mphOvercast
2:15 AM35.6 °F33.8 °F93 %29.90 in10.0 miNorth (350°)8.1 mphOvercast
2:35 AM35.6 °F32.0 °F87 %29.91 in10.0 miNW (320°)9.2 mphOvercast
2:55 AM35.6 °F32.0 °F87 %29.91 in10.0 miNNW (340°)6.9 mphOvercast
3:15 AM33.8 °F32.0 °F93 %29.90 in9.0 miNW (320°)8.1 mphOvercast
3:35 AM33.8 °F30.2 °F87 %29.89 in9.0 miNW (310°)9.2 mph0.01 inOvercast
3:55 AM33.8 °F30.2 °F87 %29.89 in10.0 miNW (320°)9.2 mph0.03 inOvercast
4:15 AM33.8 °F30.2 °F87 %29.89 in7.0 miWNW (300°)8.1 mphOvercast
4:35 AM33.8 °F30.2 °F87 %29.88 in8.0 miNW (310°)6.9 mphOvercast
4:55 AM33.8 °F30.2 °F87 %29.88 in10.0 miNW (320°)4.6 mph0.01 inOvercast
5:15 AM33.8 °F32.0 °F93 %29.87 in9.0 miNW (310°)4.6 mphOvercast
5:35 AM33.8 °F32.0 °F93 %29.87 in10.0 miWNW (300°)4.6 mphMostly Cloudy
5:55 AM33.8 °F32.0 °F93 %29.87 in7.0 miCalmScattered Clouds
6:15 AM33.8 °F30.2 °F87 %29.88 in5.0 miWest (260°)4.6 mphOvercast
6:35 AM33.8 °F32.0 °F93 %29.89 in7.0 miNW (310°)3.5 mphOvercast
6:55 AM33.8 °F32.0 °F93 %29.90 in9.0 miWNW (300°)8.1 mphOvercast
7:15 AM33.8 °F30.2 °F87 %29.91 in5.0 miWNW (300°)5.8 mphOvercast
7:35 AM33.8 °F32.0 °F93 %29.92 in4.0 miWest (280°)4.6 mphOvercast
7:55 AM35.6 °F32.0 °F87 %29.92 in7.0 miWest (280°)5.8 mphOvercast
8:15 AM35.6 °F32.0 °F87 %29.93 in9.0 miWest (270°)3.5 mphOvercast
8:35 AM35.6 °F32.0 °F87 %29.93 in10.0 miWest (280°)3.5 mphOvercast
8:55 AM35.6 °F33.8 °F93 %29.93 in10.0 miWest (270°)3.5 mphOvercast
9:15 AM35.6 °F32.0 °F87 %29.93 in10.0 miWest (260°)5.8 mphOvercast
9:35 AM37.4 °F32.0 °F81 %29.93 in10.0 miWest (260°)6.9 mphOvercast
9:55 AM37.4 °F30.2 °F75 %29.93 in10.0 miWest (260°)8.1 mphOvercast
10:15 AM39.2 °F30.2 °F70 %29.93 in10.0 miWest (260°)8.1 mphScattered Clouds
10:35 AM41.0 °F32.0 °F70 %29.92 in10.0 miWest (260°)8.1 mphClear
10:55 AM42.8 °F30.2 °F61 %29.92 in10.0 miWest (270°)6.9 mphClear
11:15 AM44.6 °F32.0 °F61 %29.91 in10.0 miWSW (240°)8.1 mphClear
11:35 AM44.6 °F28.4 °F53 %29.91 in10.0 miWest (270°)6.9 mph18.4 mphClear
11:55 AM46.4 °F28.4 °F50 %29.90 in10.0 miWest (260°)9.2 mph18.4 mphClear
12:15 PM46.4 °F28.4 °F50 %29.89 in10.0 miWest (260°)8.1 mphClear
12:35 PM48.2 °F26.6 °F43 %29.89 in10.0 miWSW (250°)9.2 mphClear
12:55 PM48.2 °F26.6 °F43 %29.87 in10.0 miWest (280°)10.4 mphClear
1:15 PM50.0 °F26.6 °F40 %29.87 in10.0 miWest (260°)8.1 mphClear
1:35 PM50.0 °F26.6 °F40 %29.86 in10.0 miWest (270°)10.4 mph16.1 mphClear
1:55 PM50.0 °F26.6 °F40 %29.86 in10.0 miWest (270°)12.7 mph16.1 mphClear
2:15 PM50.0 °F26.6 °F40 %29.86 in10.0 miWest (260°)12.7 mph16.1 mphClear
2:35 PM51.8 °F26.6 °F38 %29.86 in10.0 miWest (260°)9.2 mph20.7 mphClear
2:55 PM51.8 °F24.8 °F35 %29.85 in10.0 miWSW (240°)13.8 mphClear
3:15 PM51.8 °F24.8 °F35 %29.86 in10.0 miWSW (250°)13.8 mph19.6 mphClear
3:35 PM51.8 °F24.8 °F35 %29.85 in10.0 miWest (260°)11.5 mph18.4 mphClear
3:55 PM51.8 °F24.8 °F35 %29.85 in10.0 miWest (260°)13.8 mph19.6 mphClear
4:15 PM51.8 °F24.8 °F35 %29.85 in10.0 miWest (260°)10.4 mphClear
4:35 PM51.8 °F24.8 °F35 %29.85 in10.0 miWSW (250°)12.7 mph19.6 mphClear
4:55 PM50.0 °F23.0 °F35 %29.86 in10.0 miWest (260°)9.2 mphClear
5:15 PM48.2 °F24.8 °F40 %29.86 in10.0 miWest (260°)10.4 mphClear
5:35 PM48.2 °F24.8 °F40 %29.86 in10.0 miWest (270°)6.9 mphClear
5:55 PM46.4 °F24.8 °F43 %29.86 in10.0 miWest (260°)8.1 mphClear
6:15 PM44.6 °F24.8 °F46 %29.87 in10.0 miWest (260°)4.6 mphClear
6:35 PM44.6 °F24.8 °F46 %29.87 in10.0 miWest (270°)4.6 mphClear
6:55 PM42.8 °F24.8 °F49 %29.88 in10.0 miWest (270°)6.9 mphClear
7:15 PM42.8 °F26.6 °F53 %29.89 in10.0 miWSW (250°)5.8 mphClear
7:35 PM41.0 °F26.6 °F57 %29.89 in10.0 miWSW (250°)4.6 mphClear
7:55 PM41.0 °F26.6 °F57 %29.89 in10.0 miWSW (240°)4.6 mphClear
8:15 PM39.2 °F26.6 °F61 %29.90 in10.0 miWSW (250°)5.8 mphClear
8:35 PM39.2 °F26.6 °F61 %29.90 in10.0 miWSW (250°)4.6 mphClear
8:55 PM37.4 °F26.6 °F65 %29.91 in10.0 miWest (260°)3.5 mphClear
9:15 PM37.4 °F26.6 °F65 %29.91 in10.0 miWest (270°)3.5 mphClear
9:35 PM39.2 °F26.6 °F61 %29.91 in10.0 miCalmClear
9:55 PM39.2 °F26.6 °F61 %29.91 in10.0 miCalmClear
10:15 PM39.2 °F26.6 °F61 %29.91 in10.0 miSW (230°)3.5 mphClear
10:35 PM37.4 °F26.6 °F65 %29.91 in10.0 miSSW (210°)3.5 mphClear
10:55 PM37.4 °F26.6 °F65 %29.91 in10.0 miSSW (210°)3.5 mphClear
11:15 PM39.2 °F26.6 °F61 %29.91 in10.0 miSouth (190°)4.6 mphClear
11:35 PM37.4 °F26.6 °F65 %29.91 in10.0 miSouth (170°)5.8 mphClear
11:55 PM37.4 °F26.6 °F65 %29.90 in10.0 miSSE (160°)5.8 mphClear
Hourly data recorded from KFAM, located miles away from Fredericktown, Missouri







STORIES FROM OUR PARTNERS